GW0496 Weather Reports


time (UTC)temp
C
wind
direction
speed
KPH
gust
KPH
rain 1hr
cm
rain 24hr
cm
rain mn
cm
humidity
%
barometer
mb
20260507071908 10 308 0.0 0.0 0.00 0.00 0.00 98 1005.6
20260507071405 10 292 0.0 0.0 0.00 0.00 0.00 98 1005.5
20260507070901 10 279 0.0 0.0 0.00 0.00 0.00 98 1005.7
20260507070359 10 267 0.0 1.6 0.00 0.00 0.00 98 1005.5
20260507065855 10 314 0.0 0.0 0.00 0.00 0.00 98 1006.1
20260507065352 11 313 0.0 0.0 0.00 0.00 0.00 98 1006.1
20260507064849 11 310 0.0 0.0 0.00 0.00 0.00 98 1006.0
20260507064348 11 262 0.0 0.0 0.00 0.00 0.00 98 1005.7
20260507063845 11 312 0.0 0.0 0.00 0.00 0.00 98 1005.7
20260507063342 11 312 0.0 0.0 0.00 0.00 0.00 98 1005.9
20260507062839 11 308 0.0 0.0 0.00 0.00 0.00 98 1006.0
20260507062336 11 279 0.0 0.0 0.00 0.00 0.00 98 1005.9
20260507061834 11 315 0.0 0.0 0.00 0.00 0.00 98 1006.1
20260507061331 11 309 0.0 0.0 0.00 0.00 0.00 98 1006.0
20260507060830 11 311 0.0 0.0 0.00 0.00 0.00 98 1006.1
20260507060326 11 297 0.0 0.0 0.00 0.00 0.00 98 1006.3
20260507055823 11 311 0.0 0.0 0.00 0.00 0.00 98 1006.4
20260507055318 11 318 0.0 0.0 0.00 0.00 0.00 98 1006.3
20260507054815 11 297 0.0 0.0 0.00 0.00 0.00 98 1006.4
20260507054311 11 315 0.0 0.0 0.00 0.00 0.00 98 1006.5
20260507053808 11 314 0.0 0.0 0.00 0.00 0.00 98 1006.4
20260507053306 11 314 0.0 0.0 0.00 0.00 0.00 98 1006.4
20260507052805 11 264 1.6 8.0 0.00 0.00 0.00 98 1006.7
20260507052300 11 286 0.0 0.0 0.00 0.00 0.00 98 1006.6
20260507051759 11 280 6.4 11.3 0.00 0.00 0.00 98 1006.6
20260507051256 11 278 3.2 8.0 0.00 0.00 0.00 98 1006.9
20260507050752 11 262 0.0 0.0 0.00 0.00 0.00 98 1007.0
20260507050249 11 276 0.0 0.0 0.00 0.00 0.00 98 1007.0
20260507045746 11 252 1.6 4.8 0.00 0.00 0.00 98 1007.1
20260507045242 11 286 1.6 8.0 0.00 0.00 0.00 98 1006.9
20260507044740 11 267 0.0 0.0 0.00 0.00 0.00 98 1007.0
20260507044236 11 303 0.0 0.0 0.00 0.00 0.00 98 1006.9
20260507043732 11 287 0.0 0.0 0.00 0.00 0.00 98 1006.9
20260507043229 11 277 0.0 0.0 0.00 0.00 0.00 98 1006.9
20260507042725 11 309 1.6 4.8 0.00 0.00 0.00 97 1006.9
20260507042220 11 301 0.0 0.0 0.00 0.00 0.00 97 1007.1
20260507041718 11 274 0.0 1.6 0.00 0.00 0.00 97 1006.8
20260507041214 11 239 4.8 9.7 0.00 0.00 0.00 97 1007.1
20260507040712 12 253 9.7 22.5 0.00 0.00 0.00 97 1007.4
20260507040207 12 297 3.2 4.8 0.00 0.00 0.00 97 1007.4
20260507035703 12 223 11.3 16.1 0.00 0.43 0.43 97 1007.5
20260507035159 12 273 0.0 1.6 0.00 0.43 0.43 97 1007.2
20260507034656 12 275 3.2 4.8 0.00 0.43 0.43 96 1007.3
20260507034154 12 283 0.0 3.2 0.00 0.43 0.43 96 1007.3
20260507033652 12 280 1.6 3.2 0.00 0.43 0.43 96 1007.2
20260507033149 12 277 4.8 9.7 0.00 0.43 0.43 96 1007.4
20260507032646 12 280 0.0 1.6 0.00 0.43 0.43 96 1007.0
20260507032142 12 248 4.8 12.9 0.00 0.43 0.43 96 1007.0
20260507031639 12 308 9.7 14.5 0.00 0.43 0.43 96 1007.0
20260507031135 12 292 0.0 0.0 0.00 0.43 0.43 96 1007.1
20260507030632 12 268 4.8 12.9 0.00 0.43 0.43 96 1007.1
20260507030131 12 259 4.8 14.5 0.00 0.43 0.43 96 1007.1
20260507025627 12 249 0.0 3.2 0.00 0.43 0.43 96 1006.9
20260507025124 12 347 3.2 8.0 0.00 0.43 0.43 96 1007.0
20260507024622 12 236 6.4 17.7 0.00 0.43 0.43 96 1007.2
20260507024119 12 273 3.2 9.7 0.00 0.43 0.43 96 1007.3
20260507023614 12 279 11.3 14.5 0.00 0.43 0.43 95 1007.3
20260507023112 12 297 0.0 0.0 0.00 0.43 0.43 95 1007.6
20260507022609 12 265 1.6 3.2 0.00 0.43 0.43 95 1007.5
20260507022104 12 252 3.2 8.0 0.00 0.43 0.43 95 1007.6
20260507021601 12 245 0.0 0.0 0.00 0.43 0.43 95 1007.7
20260507021057 12 259 0.0 0.0 0.00 0.43 0.43 95 1007.5
20260507020555 12 303 0.0 0.0 0.00 0.43 0.43 95 1007.9
20260507020051 12 337 0.0 0.0 0.00 0.43 0.43 95 1007.7
20260507015549 12 304 0.0 0.0 0.00 0.43 0.43 95 1007.5
20260507015046 12 287 1.6 8.0 0.00 0.43 0.43 95 1007.7
20260507014543 13 240 3.2 11.3 0.00 0.43 0.43 95 1007.7
20260507014033 13 276 1.6 8.0 0.00 0.43 0.43 94 1007.8
20260507013530 13 302 0.0 1.6 0.00 0.43 0.43 94 1007.7
20260507013027 13 297 1.6 4.8 0.00 0.43 0.43 94 1007.8
20260507012524 13 270 14.5 20.9 0.00 0.43 0.43 94 1007.7
20260507012020 13 25 14.5 24.1 0.00 0.43 0.43 94 1007.6
20260507011518 13 235 11.3 24.1 0.00 0.43 0.43 94 1007.6
20260507011014 13 241 9.7 14.5 0.00 0.43 0.43 94 1007.7
20260507010508 13 274 6.4 14.5 0.00 0.43 0.43 94 1008.0
20260507010005 13 235 3.2 9.7 0.00 0.43 0.43 94 1007.7
20260507005503 13 285 3.2 11.3 0.00 0.43 0.43 95 1007.7
20260507004959 13 272 0.0 1.6 0.00 0.43 0.43 95 1007.7
20260507004456 13 217 0.0 0.0 0.00 0.43 0.43 95 1007.8
20260507003954 13 192 8.0 17.7 0.00 0.43 0.43 95 1007.7
20260507003448 13 268 3.2 12.9 0.00 0.43 0.43 96 1007.6
20260507002943 13 315 0.0 0.0 0.18 0.43 0.43 96 1008.0
20260507002440 13 296 0.0 4.8 0.30 0.43 0.43 96 1007.7
20260507001937 13 323 0.0 0.0 0.13 0.41 0.41 96 1007.6
20260507001434 13 296 8.0 11.3 0.00 0.38 0.38 95 1007.8
20260507000932 13 259 0.0 0.0 0.48 0.38 0.38 95 1007.7
20260507000427 13 299 0.0 0.0 0.79 0.38 0.38 95 1007.8
20260506235922 13 282 0.0 0.0 0.30 0.30 0.30 95 1007.8
20260506235420 13 345 0.0 0.0 0.00 0.25 0.25 94 1007.7
20260506234910 13 283 0.0 0.0 0.00 0.25 0.25 94 1007.7
20260506234408 13 304 0.0 0.0 0.18 0.25 0.25 95 1007.9
20260506233906 13 229 0.0 0.0 0.18 0.25 0.25 95 1007.4
20260506233401 13 293 0.0 0.0 0.13 0.23 0.23 95 1007.8
20260506232858 13 223 0.0 0.0 0.13 0.23 0.23 95 1007.7
20260506232354 13 310 0.0 0.0 0.18 0.20 0.20 94 1007.6
20260506231850 13 223 0.0 0.0 0.30 0.20 0.20 94 1007.7
20260506231348 13 285 1.6 3.2 0.30 0.18 0.18 94 1008.0
20260506230846 13 273 1.6 4.8 0.30 0.15 0.15 94 1008.0
20260506230342 13 249 0.0 0.0 0.13 0.13 0.13 94 1008.2
20260506225838 13 257 0.0 0.0 0.18 0.10 0.10 94 1008.2
20260506225336 13 191 0.0 0.0 0.30 0.10 0.10 93 1008.3
20260506224833 13 194 0.0 1.6 0.13 0.08 0.08 92 1008.2
20260506224330 13 268 3.2 9.7 0.00 0.05 0.05 92 1008.5
20260506223826 13 282 1.6 4.8 0.18 0.05 0.05 92 1008.5
20260506223321 13 259 0.0 0.0 0.30 0.05 0.05 91 1008.4
20260506222819 14 224 0.0 0.0 0.13 0.03 0.03 89 1008.3
20260506222314 14 251 0.0 0.0 0.00 0.00 0.00 88 1008.3
20260506221813 14 245 3.2 9.7 0.00 0.00 0.00 86 1008.5
20260506221310 14 247 0.0 1.6 0.00 0.00 0.00 86 1008.3
20260506220807 14 257 0.0 3.2 0.00 0.00 0.00 86 1008.3
20260506220302 14 284 0.0 0.0 0.00 0.00 0.00 86 1008.2
20260506215759 15 124 1.6 11.3 0.00 0.00 0.00 86 1008.3
20260506215255 15 246 0.0 0.0 0.00 0.00 0.00 83 1008.4
20260506214751 15 3 0.0 0.0 0.00 0.00 0.00 82 1008.3
20260506214248 15 209 0.0 0.0 0.00 0.00 0.00 81 1008.3
20260506213746 15 319 0.0 1.6 0.00 0.00 0.00 82 1008.5
20260506213243 15 235 0.0 0.0 0.00 0.00 0.00 82 1008.4
20260506212740 15 275 0.0 0.0 0.00 0.00 0.00 83 1008.6
20260506212236 15 296 0.0 1.6 0.00 0.00 0.00 83 1008.8
20260506211731 15 294 0.0 0.0 0.00 0.00 0.00 83 1008.7
20260506211228 15 327 0.0 0.0 0.00 0.00 0.00 83 1008.5
20260506210725 15 1 0.0 3.2 0.00 0.00 0.00 81 1008.8
20260506210222 15 281 1.6 4.8 0.00 0.00 0.00 79 1008.6
20260506205719 15 304 0.0 0.0 0.00 0.00 0.00 79 1009.0
20260506205214 15 317 0.0 0.0 0.00 0.00 0.00 80 1008.4
20260506204712 15 347 1.6 4.8 0.00 0.00 0.00 79 1008.6
20260506204209 15 318 0.0 0.0 0.00 0.00 0.00 79 1008.8
20260506203707 15 319 0.0 0.0 0.00 0.00 0.00 80 1008.8
20260506203204 15 177 3.2 11.3 0.00 0.00 0.00 80 1009.0
20260506202702 15 232 0.0 0.0 0.00 0.00 0.00 78 1009.0
20260506202157 15 193 0.0 0.0 0.00 0.00 0.00 78 1009.1
20260506201654 15 237 0.0 0.0 0.00 0.00 0.00 78 1008.8
20260506201150 15 230 0.0 0.0 0.00 0.00 0.00 78 1009.1
20260506200648 15 287 0.0 0.0 0.00 0.00 0.00 77 1009.0
20260506200144 15 261 0.0 0.0 0.00 0.00 0.00 77 1009.4
20260506195641 15 291 0.0 0.0 0.00 0.00 0.00 77 1009.3
20260506195137 15 299 0.0 0.0 0.00 0.00 0.00 76 1009.3
20260506194635 16 302 0.0 0.0 0.00 0.00 0.00 76 1009.2
20260506194131 16 311 0.0 0.0 0.00 0.00 0.00 76 1009.4
20260506193629 15 310 0.0 0.0 0.00 0.00 0.00 77 1009.7
20260506193126 15 298 1.6 3.2 0.00 0.00 0.00 77 1009.5
20260506192622 15 312 0.0 0.0 0.00 0.00 0.00 77 1009.6
20260506192118 15 343 0.0 1.6 0.00 0.00 0.00 77 1009.5
20260506191615 15 279 0.0 0.0 0.00 0.00 0.00 77 1009.5
20260506191111 15 86 0.0 0.0 0.00 0.00 0.00 77 1009.7
20260506190609 15 332 0.0 1.6 0.00 0.00 0.00 77 1009.5
20260506190106 15 162 0.0 0.0 0.00 0.00 0.00 77 1009.7
20260506185603 15 322 0.0 0.0 0.00 0.00 0.00 76 1009.4
20260506185059 16 266 0.0 3.2 0.00 0.00 0.00 76 1009.6
20260506184556 16 305 0.0 1.6 0.00 0.00 0.00 75 1009.8
20260506184054 16 290 0.0 0.0 0.00 0.00 0.00 74 1009.8
20260506183549 16 255 0.0 0.0 0.00 0.00 0.00 75 1010.1
20260506183046 16 250 3.2 4.8 0.00 0.00 0.00 74 1010.2
20260506182544 16 302 0.0 0.0 0.00 0.00 0.00 75 1010.2
20260506182041 16 262 0.0 3.2 0.00 0.00 0.00 74 1010.2
20260506181539 16 308 0.0 1.6 0.00 0.00 0.00 74 1010.3
20260506181035 16 232 0.0 1.6 0.00 0.00 0.00 75 1010.5
20260506180532 16 284 0.0 1.6 0.00 0.00 0.00 75 1010.6
20260506180029 16 259 0.0 0.0 0.00 0.00 0.00 74 1010.8
20260506175525 16 193 0.0 1.6 0.00 0.00 0.00 74 1010.8
20260506175021 17 227 3.2 8.0 0.00 0.00 0.00 73 1010.8
20260506174520 17 258 0.0 3.2 0.00 0.00 0.00 71 1010.8
20260506174016 17 244 0.0 0.0 0.00 0.00 0.00 70 1010.9
20260506173514 17 251 0.0 1.6 0.00 0.00 0.00 71 1010.8
20260506173010 17 288 3.2 12.9 0.00 0.00 0.00 70 1011.0
20260506172508 18 309 1.6 3.2 0.00 0.00 0.00 69 1010.6
20260506172004 18 292 0.0 0.0 0.00 0.00 0.00 70 1010.8
20260506171501 18 294 0.0 0.0 0.00 0.00 0.00 69 1010.8
20260506170959 18 318 0.0 0.0 0.00 0.00 0.00 68 1010.9
20260506170455 18 299 0.0 1.6 0.00 0.00 0.00 69 1011.3
20260506165948 17 288 3.2 4.8 0.00 0.00 0.00 70 1011.6
20260506165447 17 336 4.8 12.9 0.00 0.00 0.00 72 1011.1
20260506164942 17 236 3.2 9.7 0.00 0.00 0.00 71 1011.4
20260506164439 17 197 0.0 1.6 0.00 0.00 0.00 70 1011.4
20260506163937 17 287 0.0 3.2 0.00 0.00 0.00 71 1011.2
20260506163431 17 315 0.0 1.6 0.00 0.00 0.00 71 1011.4
20260506162926 17 291 1.6 4.8 0.00 0.00 0.00 71 1011.8
20260506162424 18 279 8.0 17.7 0.00 0.00 0.00 70 1011.7
20260506161921 18 68 4.8 16.1 0.00 0.00 0.00 69 1011.8
20260506161420 18 267 0.0 0.0 0.00 0.00 0.00 70 1011.6
20260506160911 18 271 0.0 0.0 0.00 0.00 0.00 70 1011.7
20260506160408 18 331 0.0 1.6 0.00 0.00 0.00 70 1011.7
20260506155906 18 253 0.0 1.6 0.00 0.00 0.00 69 1011.9
20260506155403 18 237 0.0 0.0 0.00 0.00 0.00 69 1012.0
20260506153525 18 186 0.0 0.0 0.00 0.00 0.00 71 1012.4
20260506153023 17 232 0.0 1.6 0.00 0.00 0.00 71 1012.5
20260506152519 18 231 1.6 4.8 0.00 0.00 0.00 70 1012.7
20260506152018 18 279 0.0 0.0 0.00 0.00 0.00 70 1012.3
20260506151515 17 262 1.6 4.8 0.00 0.00 0.00 71 1012.5
20260506151012 17 216 0.0 1.6 0.00 0.00 0.00 72 1012.5
20260506150508 17 165 0.0 0.0 0.00 0.00 0.00 71 1012.3
20260506150005 17 244 1.6 8.0 0.00 0.00 0.00 72 1012.3
20260506145502 16 254 0.0 0.0 0.00 0.00 0.00 74 1012.2
20260506144959 16 275 0.0 1.6 0.00 0.00 0.00 75 1012.2
20260506144456 16 289 1.6 4.8 0.00 0.00 0.00 73 1012.1
20260506143954 17 326 6.4 12.9 0.00 0.00 0.00 72 1012.1
20260506143451 17 311 0.0 0.0 0.00 0.00 0.00 71 1012.0
20260506142949 17 255 0.0 0.0 0.00 0.00 0.00 71 1011.8
20260506142447 17 282 0.0 1.6 0.00 0.00 0.00 72 1012.0
20260506141944 17 254 4.8 14.5 0.00 0.00 0.00 72 1012.0
20260506141442 17 235 0.0 3.2 0.00 0.00 0.00 71 1012.2
20260506140941 18 257 6.4 9.7 0.00 0.00 0.00 69 1012.1
20260506140437 18 291 0.0 0.0 0.00 0.00 0.00 69 1012.2
20260506135934 18 352 1.6 8.0 0.00 0.00 0.00 69 1012.2
20260506135431 18 287 0.0 1.6 0.00 0.00 0.00 71 1012.3
20260506134927 18 258 0.0 0.0 0.00 0.00 0.00 70 1012.4
20260506134423 18 149 6.4 14.5 0.00 0.00 0.00 70 1012.2
20260506133920 17 23 0.0 0.0 0.00 0.00 0.00 70 1012.3
20260506133417 17 242 0.0 0.0 0.00 0.00 0.00 71 1012.4
20260506132914 18 132 4.8 12.9 0.00 0.00 0.00 70 1012.1
20260506132411 17 282 0.0 0.0 0.00 0.00 0.00 71 1012.3
20260506131909 17 277 1.6 9.7 0.00 0.00 0.00 71 1012.0
20260506131405 17 281 0.0 1.6 0.00 0.00 0.00 70 1012.1
20260506130902 17 267 0.0 0.0 0.00 0.00 0.00 72 1012.3
20260506130358 17 313 1.6 3.2 0.00 0.00 0.00 72 1012.2
20260506125857 17 212 0.0 0.0 0.00 0.00 0.00 73 1012.3
20260506125355 17 181 1.6 4.8 0.00 0.00 0.00 73 1012.3
20260506124853 17 276 0.0 1.6 0.00 0.00 0.00 73 1012.3
20260506124349 17 163 1.6 8.0 0.00 0.00 0.00 73 1012.5
20260506123847 17 211 1.6 8.0 0.00 0.00 0.00 73 1012.3
20260506123345 17 274 4.8 16.1 0.00 0.00 0.00 74 1012.2
20260506122842 17 256 0.0 0.0 0.00 0.00 0.00 75 1012.3
20260506122339 16 176 0.0 0.0 0.00 0.00 0.00 75 1012.3
20260506121837 16 291 0.0 3.2 0.00 0.00 0.00 75 1012.4
20260506121334 16 271 0.0 0.0 0.00 0.00 0.00 75 1012.2
20260506120831 16 349 1.6 4.8 0.00 0.00 0.00 76 1012.5
20260506120329 16 270 1.6 4.8 0.00 0.00 0.00 77 1012.7
20260506115826 16 214 6.4 16.1 0.00 0.00 0.00 78 1012.5
20260506115324 15 256 1.6 4.8 0.00 0.00 0.00 80 1012.7
20260506114822 15 275 8.0 25.7 0.00 0.00 0.00 80 1012.8
20260506114319 15 262 1.6 8.0 0.00 0.00 0.00 80 1012.4
20260506113818 15 344 0.0 0.0 0.00 0.00 0.00 80 1012.6
20260506113315 15 288 8.0 16.1 0.00 0.00 0.00 79 1012.5
20260506112811 16 311 4.8 14.5 0.00 0.00 0.00 78 1012.7
20260506112309 15 244 4.8 14.5 0.00 0.00 0.00 80 1012.8
20260506111806 16 269 4.8 12.9 0.00 0.00 0.00 79 1012.6
20260506111304 16 285 6.4 12.9 0.00 0.00 0.00 78 1012.5
20260506110801 15 225 0.0 0.0 0.00 0.00 0.00 80 1012.6
20260506110258 15 215 0.0 0.0 0.00 0.00 0.00 81 1012.6
20260506105754 15 249 4.8 11.3 0.00 0.00 0.00 80 1012.6
20260506105252 15 301 4.8 11.3 0.00 0.00 0.00 82 1012.6
20260506104749 15 257 0.0 0.0 0.00 0.00 0.00 82 1012.6
20260506104247 15 282 0.0 1.6 0.00 0.00 0.00 83 1012.5
20260506103744 15 277 0.0 1.6 0.00 0.00 0.00 83 1012.8
20260506103241 15 265 3.2 16.1 0.00 0.00 0.00 83 1012.7
20260506102739 15 281 3.2 8.0 0.00 0.00 0.00 83 1012.8
20260506102237 15 235 0.0 1.6 0.00 0.00 0.00 84 1012.6
20260506101733 15 333 0.0 1.6 0.00 0.00 0.00 84 1012.7
20260506101230 14 229 1.6 4.8 0.00 0.00 0.00 85 1012.5
20260506100728 14 313 1.6 4.8 0.00 0.00 0.00 86 1012.8
20260506100226 13 293 0.0 3.2 0.00 0.00 0.00 87 1012.6
20260506095724 13 242 1.6 8.0 0.00 0.00 0.00 87 1012.8
20260506095220 13 268 0.0 0.0 0.00 0.00 0.00 88 1012.8
20260506094717 13 265 0.0 0.0 0.00 0.00 0.00 88 1012.7
20260506094215 13 285 3.2 8.0 0.00 0.00 0.00 89 1012.7
20260506093714 13 121 3.2 9.7 0.00 0.00 0.00 88 1012.9
20260506093210 13 264 11.3 17.7 0.00 0.00 0.00 88 1013.1
20260506092709 13 297 4.8 11.3 0.00 0.00 0.00 88 1012.9
20260506092206 13 319 1.6 3.2 0.00 0.00 0.00 88 1013.1
20260506091703 13 273 4.8 11.3 0.00 0.00 0.00 88 1012.9
20260506091201 13 279 0.0 3.2 0.00 0.00 0.00 89 1013.0
20260506090658 13 253 4.8 12.9 0.00 0.00 0.00 89 1012.9
20260506090155 13 267 1.6 8.0 0.00 0.00 0.00 89 1012.6
20260506085652 13 309 4.8 11.3 0.00 0.00 0.00 89 1012.8
20260506085148 13 271 4.8 14.5 0.00 0.00 0.00 89 1012.7
20260506084645 13 300 0.0 0.0 0.00 0.00 0.00 89 1013.0
20260506084141 13 251 0.0 0.0 0.00 0.00 0.00 90 1013.0
20260506083638 13 262 3.2 11.3 0.00 0.00 0.00 90 1012.9
20260506083136 13 234 3.2 9.7 0.00 0.00 0.00 90 1013.0
20260506082633 13 283 12.9 17.7 0.00 0.00 0.00 90 1012.8
20260506082128 12 64 0.0 1.6 0.00 0.00 0.00 90 1013.0
20260506081627 12 297 3.2 8.0 0.00 0.00 0.00 90 1013.2
20260506081124 12 262 4.8 11.3 0.00 0.00 0.00 90 1013.1
20260506080622 12 254 0.0 0.0 0.00 0.00 0.00 90 1012.9
20260506080118 12 327 0.0 0.0 0.00 0.00 0.00 90 1013.1
20260506073102 12 288 1.6 4.8 0.00 0.00 0.00 91 1013.0
20260506072558 12 295 3.2 8.0 0.00 0.00 0.00 91 1012.9
20260506072056 12 267 0.0 0.0 0.00 0.00 0.00 92 1013.0